User: anonymous   Login
Location: ActonStarParty
(42.4766°N, 71.4538°W)
Time: 20:50:42
(UTC-04:00)
Language:

ITAMSAT 1 - Orbit

View from above orbital plane
View from above orbital plane
View from above satellite
View from above satellite

Ground track
Ground track

The orbit data is extracted from the following two-line orbital elements,

1 22826U 93061D   17207.25786128 -.00000007 +00000-0 +14959-4 0  9995
2 22826 098.8094 173.4042 0008403 201.2042 158.8793 14.30330417242912
Epoch (UTC): 26 July 2017 06:11:19
Eccentricity: 0.0008403
inclination: 98.8094°
perigee height: 784 km
apogee height: 796 km
right ascension of ascending node: 173.4042°
argument of perigee: 201.2042°
revolutions per day: 14.30330417
mean anomaly at epoch: 158.8793°
orbit number at epoch: 24291

The dashed part of the orbit path shows where the satellite is in the earth's shadow,  

DLR